Weather History for Creston, IA

Change the Weather History Date:

Thursday, January 12, 2012

  Actual Average Record
Temperature  
Mean Temperature 12 °F -  
Max Temperature 17 °F 28 °F 55 °F (1961)
Min Temperature 8 °F 13 °F -9 °F (1963)
Degree Days  
Heating Degree Days 52    
Moisture  
Dew Point 3 °F    
Average Humidity 68    
Maximum Humidity 73    
Minimum Humidity 62    
Precipitation  
Precipitation 0.00 in - - ()
Sea Level Pressure  
Sea Level Pressure 29.86 in    
Wind  
Wind Speed 23 mph (NW)    
Max Wind Speed 31 mph    
Max Gust Speed 38 mph    
Visibility 10 miles    
Events Snow    
Averages and records for this station are not official NWS values.
T = Trace of Precipitation, MM = Missing Value Source: NWS Daily Summary

Daily Weather History Graph

Daily Weather History Graph

Search for Another Location

Airport:

Trip Planner

Search our weather history database for the weather conditions in past years. The results will help you decide how hot, cold, wet, or windy it might be!

Date:

Astronomy

Jan. 12, 2012 Rise Set
Actual Time 7:41 AM CST 5:10 PM CST
Civil Twilight 7:10 AM CST 5:40 PM CST
Nautical Twilight 6:36 AM CST 6:14 PM CST
Astronomical Twilight 6:03 AM CST 6:47 PM CST
Moon 9:18 PM CST (1/12) 9:23 AM CST (1/12)
Length of Visible Light 10h 29m
Length of Day
9h 28m
Waning Gibbous, 87% of the Moon is Illuminated
Jan 12
Waning Gibbous
Jan 16
Last Quarter
Jan 23
New
Jan 30
First Quarter
Feb 7
Full

Hourly Weather History & Observations

Time (CST) Temp. Windchill Dew Point Humidity Pressure Visibility Wind Dir Wind Speed Gust Speed Precip Events Conditions
12:15 AM 17.6 °F 0.9 °F 8.6 °F 68% 29.87 in 10.0 mi NNW 20.7 mph 32.2 mph N/A   Overcast
12:35 AM 17.6 °F 0.9 °F 8.6 °F 68% 29.87 in 10.0 mi NNW 20.7 mph 27.6 mph N/A Snow Light Snow
12:55 AM 17.6 °F 0.1 °F 8.6 °F 68% 29.86 in 10.0 mi NNW 23.0 mph - N/A   Overcast
1:15 AM 17.6 °F 0.5 °F 8.6 °F 68% 29.86 in 10.0 mi NNW 21.9 mph 28.8 mph N/A   Overcast
1:35 AM 17.6 °F 0.5 °F 10.4 °F 73% 29.86 in 10.0 mi NW 21.9 mph 27.6 mph N/A   Overcast
1:55 AM 17.6 °F 1.3 °F 10.4 °F 73% 29.86 in 10.0 mi NW 19.6 mph 27.6 mph N/A Snow Light Snow
2:15 AM 17.6 °F 0.1 °F 8.6 °F 68% 29.87 in 10.0 mi NNW 23.0 mph 33.4 mph N/A Snow Light Snow
2:35 AM 17.6 °F -1.3 °F 8.6 °F 68% 29.86 in 10.0 mi NNW 27.6 mph 35.7 mph N/A Snow Light Snow
2:55 AM 15.8 °F -3.1 °F 6.8 °F 68% 29.86 in 7.0 mi NW 25.3 mph 32.2 mph N/A Snow Light Snow
3:15 AM 15.8 °F -3.7 °F 6.8 °F 68% 29.86 in 10.0 mi NW 27.6 mph 35.7 mph N/A   Overcast
3:35 AM 15.8 °F -1.9 °F 5.0 °F 62% 29.86 in 10.0 mi NW 21.9 mph 32.2 mph N/A   Overcast
3:56 AM 15.8 °F -0.6 °F 6.8 °F 68% 29.85 in 10.0 mi NW 18.4 mph 32.2 mph N/A   Overcast
4:15 AM 14.0 °F -3.9 °F 6.8 °F 73% 29.85 in 10.0 mi NW 20.7 mph 28.8 mph N/A   Overcast
4:35 AM 14.0 °F -4.3 °F 6.8 °F 73% 29.85 in 10.0 mi NW 21.9 mph 28.8 mph N/A   Overcast
4:55 AM 12.2 °F -9.6 °F 5.0 °F 73% 29.85 in 10.0 mi NW 31.1 mph - N/A   Overcast
5:15 AM 12.2 °F -8.2 °F 3.2 °F 67% 29.85 in 10.0 mi NW 26.5 mph 34.5 mph N/A   Overcast
5:35 AM 12.2 °F -7.5 °F 1.4 °F 62% 29.86 in 10.0 mi NW 24.2 mph 34.5 mph N/A   Overcast
6:15 AM 10.4 °F -11.4 °F 1.4 °F 67% 29.87 in 10.0 mi NW 28.8 mph 38.0 mph N/A   Overcast
6:35 AM 10.4 °F -10.3 °F -0.4 °F 62% 29.87 in 10.0 mi NW 25.3 mph 36.8 mph N/A   Overcast
6:55 AM 8.6 °F -11.9 °F -0.4 °F 67% 29.87 in 10.0 mi NW 23.0 mph 38.0 mph N/A   Overcast
7:15 AM 8.6 °F -12.3 °F 1.4 °F 73% 29.87 in 10.0 mi NW 24.2 mph 34.5 mph N/A   Overcast
7:35 AM 8.6 °F -11.0 °F -0.4 °F 67% 29.87 in 10.0 mi NW 20.7 mph 32.2 mph N/A   Overcast
7:55 AM 8.6 °F -11.9 °F 1.4 °F 73% 29.87 in 10.0 mi NW 23.0 mph 28.8 mph N/A   Overcast
8:15 AM 8.6 °F -11.4 °F -0.4 °F 67% 29.86 in 10.0 mi NW 21.9 mph 31.1 mph N/A   Overcast
8:35 AM 8.6 °F -11.9 °F -0.4 °F 67% 29.86 in 10.0 mi NW 23.0 mph 29.9 mph N/A   Overcast
8:56 AM 8.6 °F -11.0 °F -0.4 °F 67% 29.87 in 10.0 mi NW 20.7 mph 28.8 mph N/A   Overcast
9:15 AM 8.6 °F -11.9 °F -0.4 °F 67% 29.86 in 10.0 mi NW 23.0 mph 31.1 mph N/A   Overcast
9:56 AM 8.6 °F -13.1 °F -0.4 °F 67% 29.87 in 10.0 mi NW 26.5 mph 32.2 mph N/A   Overcast
10:15 AM 8.6 °F -12.7 °F -0.4 °F 67% 29.87 in 10.0 mi NW 25.3 mph 29.9 mph N/A   Overcast
10:35 AM 8.6 °F -11.4 °F 1.4 °F 73% 29.87 in 10.0 mi NW 21.9 mph 29.9 mph N/A   Overcast
10:55 AM 10.4 °F -9.5 °F 1.4 °F 67% 29.86 in 10.0 mi NW 23.0 mph 32.2 mph N/A   Overcast
11:15 AM 10.4 °F -10.7 °F 1.4 °F 67% 29.86 in 10.0 mi NW 26.5 mph 29.9 mph N/A   Overcast
11:35 AM 10.4 °F -9.9 °F 1.4 °F 67% 29.85 in 10.0 mi WNW 24.2 mph 32.2 mph N/A   Overcast
11:55 AM 10.4 °F -9.5 °F 1.4 °F 67% 29.85 in 10.0 mi WNW 23.0 mph 29.9 mph N/A   Overcast
12:15 PM 10.4 °F -10.7 °F 1.4 °F 67% 29.85 in 10.0 mi NW 26.5 mph 33.4 mph N/A   Overcast
12:35 PM 10.4 °F -9.9 °F 1.4 °F 67% 29.84 in 10.0 mi NW 24.2 mph 33.4 mph N/A   Overcast
12:55 PM 12.2 °F -7.1 °F 1.4 °F 62% 29.84 in 10.0 mi NW 23.0 mph 31.1 mph N/A   Overcast
1:15 PM 12.2 °F -7.1 °F 1.4 °F 62% 29.83 in 10.0 mi NW 23.0 mph 28.8 mph N/A   Overcast
1:35 PM 12.2 °F -7.5 °F 1.4 °F 62% 29.83 in 10.0 mi NW 24.2 mph 35.7 mph N/A   Overcast
1:55 PM 12.2 °F -8.2 °F 1.4 °F 62% 29.84 in 10.0 mi NW 26.5 mph 33.4 mph N/A   Overcast
2:15 PM 12.2 °F -5.3 °F 3.2 °F 67% 29.84 in 7.0 mi NW 18.4 mph 32.2 mph N/A   Overcast
2:35 PM 12.2 °F -7.5 °F 3.2 °F 67% 29.84 in 1.8 mi NW 24.2 mph 31.1 mph N/A Snow Light Snow
2:55 PM 12.2 °F -7.1 °F 3.2 °F 67% 29.85 in 7.0 mi NW 23.0 mph 29.9 mph N/A   Overcast
3:15 PM 12.2 °F -6.3 °F 3.2 °F 67% 29.85 in 7.0 mi NW 20.7 mph 31.1 mph N/A   Overcast
3:35 PM 12.2 °F -6.7 °F 3.2 °F 67% 29.85 in 10.0 mi WNW 21.9 mph 33.4 mph N/A   Overcast
4:15 PM 12.2 °F -7.9 °F 3.2 °F 67% 29.86 in 10.0 mi WNW 25.3 mph 38.0 mph N/A   Overcast
4:35 PM 12.2 °F -7.5 °F 3.2 °F 67% 29.86 in 10.0 mi NW 24.2 mph 32.2 mph N/A   Overcast
5:15 PM 12.2 °F -7.1 °F 3.2 °F 67% 29.87 in 10.0 mi WNW 23.0 mph 29.9 mph N/A   Overcast
5:35 PM 12.2 °F -6.3 °F 5.0 °F 73% 29.87 in 10.0 mi WNW 20.7 mph 28.8 mph N/A   Overcast
5:55 PM 12.2 °F -5.8 °F 3.2 °F 67% 29.88 in 10.0 mi NW 19.6 mph 28.8 mph N/A   Overcast
6:15 PM 12.2 °F -6.7 °F 3.2 °F 67% 29.88 in 10.0 mi NW 21.9 mph 31.1 mph N/A   Overcast
6:35 PM 12.2 °F -6.7 °F 3.2 °F 67% 29.88 in 10.0 mi WNW 21.9 mph 29.9 mph N/A   Overcast
6:55 PM 12.2 °F -5.8 °F 5.0 °F 73% 29.88 in 10.0 mi WNW 19.6 mph 29.9 mph N/A Snow Light Snow
7:15 PM 12.2 °F -6.7 °F 5.0 °F 73% 29.89 in 5.0 mi WNW 21.9 mph 29.9 mph N/A Snow Light Snow
7:35 PM 12.2 °F -6.7 °F 3.2 °F 67% 29.89 in 10.0 mi WNW 21.9 mph 27.6 mph N/A   Overcast
7:55 PM 12.2 °F -6.3 °F 3.2 °F 67% 29.89 in 10.0 mi NW 20.7 mph 31.1 mph N/A   Overcast
8:15 PM 12.2 °F -5.3 °F 3.2 °F 67% 29.89 in 10.0 mi NW 18.4 mph 31.1 mph N/A   Overcast
8:35 PM 12.2 °F -5.3 °F 3.2 °F 67% 29.90 in 10.0 mi WNW 18.4 mph 28.8 mph N/A   Overcast
8:55 PM 12.2 °F -6.3 °F 5.0 °F 73% 29.90 in 10.0 mi NW 20.7 mph 26.5 mph N/A   Overcast
9:15 PM 12.2 °F -5.3 °F 5.0 °F 73% 29.90 in 10.0 mi NW 18.4 mph 24.2 mph N/A   Overcast
9:35 PM 12.2 °F -6.7 °F 6.8 °F 79% 29.91 in 10.0 mi NW 21.9 mph 26.5 mph N/A   Overcast
9:55 PM 12.2 °F -6.3 °F 5.0 °F 73% 29.91 in 10.0 mi NW 20.7 mph 26.5 mph N/A   Overcast
10:15 PM 12.2 °F -5.3 °F 5.0 °F 73% 29.92 in 7.0 mi NW 18.4 mph - N/A Snow Light Snow
10:35 PM 12.2 °F -7.1 °F 5.0 °F 73% 29.92 in 10.0 mi NW 23.0 mph 27.6 mph N/A   Overcast
10:55 PM 12.2 °F -5.8 °F 5.0 °F 73% 29.93 in 7.0 mi NW 19.6 mph 25.3 mph N/A Snow Light Snow
11:15 PM 10.4 °F -7.2 °F 3.2 °F 73% 29.93 in 10.0 mi NW 17.3 mph 23.0 mph N/A   Overcast
11:35 PM 10.4 °F -8.2 °F 3.2 °F 73% 29.93 in 10.0 mi NW 19.6 mph 28.8 mph N/A   Overcast
11:55 PM 10.4 °F -7.7 °F 3.2 °F 73% 29.93 in 10.0 mi NW 18.4 mph - N/A   Overcast